Location: Juzet
(42.9779°N, 0.7597°E)
Time: 07:59:37
(UTC+00:00)

Cosmos 1674 Rocket - Pass Details

Date: 14 July 2020
Orbit: 602 x 631 km, 82.5° (Epoch: 05 August)

Event Time Altitude Azimuth Distance (km) Brightness Sun altitude
Rises 02:42:12 0° 350° (N) 2,882 7.6 -15.7°
Reaches altitude 10° 02:44:26 10° 350° (N) 1,969 6.7 -15.5°
Maximum altitude 02:48:47 81° 264° (W) 618 3.4 -15.0°
Enters shadow 02:52:18 15° 177° (S) 1,628 5.3 -14.6°
